Dewpoint
31 24 21 21 21 21 21 21 21 22 26 26 27 26 25 25 25 25 24 25 24 23 22 22 22 22 22 22 23 26 26 27 26 26 26 26 26 26 26 26 26 26 26 29 29 28 29 29 29 30 30 31 30 30 30 31 32 32 33 34 34 36 38 39 39 40 42 42 42 42 41 42 42 42 42 42 42 42 42 42 42 42 43 44 45 47
27 23 23 24 22 22 21 21 21 22 22 22 23 23 22 24 22 24 23 25 25 22 23 22 21 22 21 21 28 28 27 26 26 26 26 26 26 26 26 25 26 26 28 28 26 26 27 28 28 29 29 30 29 29 29 30 30 31 32 32 33 34 36 37 38 38 38 40 41 40 40 38 38 38 38 38 38 39 39 39 40 41 41 41 41 42
24 22 22 22 24 26 26 23 21 21 23 24 23 23 23 23 25 25 25 26 22 24 23 20 20 21 21 26 29 28 28 28 28 27 26 25 25 26 26 25 25 25 25 25 25 26 25 27 27 27 27 27 28 28 28 29 29 29 30 31 32 32 34 35 37 38 37 37 37 37 37 37 36 37 37 35 36 36 35 35 35 37 38 39 39 40
23 26 24 25 26 25 25 26 25 27 26 26 25 24 24 26 25 25 26 26 24 21 20 20 20 22 23 27 27 28 28 28 28 28 29 28 26 26 26 26 25 25 25 24 24 24 24 25 25 25 26 26 27 27 27 27 27 28 29 29 30 31 32 33 35 37 37 37 36 36 35 35 34 34 35 33 33 33 33 33 33 33 35 36 36 36
27 27 27 26 27 25 25 26 26 25 25 27 27 26 26 26 25 25 25 26 25 25 23 21 22 22 22 23 26 27 27 26 26 26 26 27 28 28 28 27 28 26 25 25 24 24 24 24 24 24 25 25 25 26 26 26 26 26 27 28 28 29 30 31 32 33 34 35 34 34 33 33 32 32 32 31 31 31 32 31 31 31 32 33 33 33
27 29 29 27 28 27 27 26 27 28 26 27 28 27 26 26 25 25 26 24 24 24 24 21 19 19 22 25 25 26 26 26 27 25 25 26 26 26 25 26 26 27 27 25 25 25 24 24 24 24 24 24 24 25 26 26 26 25 25 26 27 27 28 29 30 31 32 32 32 31 31 30 29 29 30 30 30 30 30 30 30 30 31 31 31 31
27 30 30 29 28 28 28 27 28 28 27 25 26 29 27 26 26 25 25 25 20 19 22 22 17 18 22 20 25 25 26 26 26 26 25 25 25 26 26 26 26 26 25 25 25 25 24 24 23 23 24 24 24 24 26 26 25 25 25 24 25 25 26 29 29 30 30 29 30 30 29 29 28 28 29 30 30 29 29 29 28 29 29 29 29 30
29 29 29 29 28 28 27 26 28 28 27 25 27 29 27 26 26 26 26 26 25 25 25 23 20 20 21 20 25 25 25 25 25 25 25 25 25 25 25 26 26 26 26 26 25 25 25 25 24 23 24 24 24 24 24 24 25 24 23 23 22 23 24 24 26 27 29 28 28 28 28 28 27 27 27 28 27 27 27 25 26 25 26 26 27 28
30 27 28 28 28 27 27 28 29 29 27 27 28 28 27 27 27 26 25 24 23 21 21 23 24 18 19 21 24 25 23 24 25 24 24 24 25 25 25 26 26 26 26 26 25 25 25 25 25 24 23 24 24 24 24 23 24 24 23 22 21 21 21 21 23 23 24 27 26 25 25 25 26 26 26 24 24 23 22 21 22 22 22 22 23 24
29 28 29 30 29 28 29 28 29 29 27 27 28 28 27 27 26 25 23 23 21 18 18 21 22 16 19 23 22 23 22 23 24 24 24 24 24 24 25 25 26 26 26 26 26 25 26 26 25 25 23 22 23 23 25 23 23 23 22 21 20 20 20 21 20 20 21 21 22 21 21 21 21 21 20 19 19 20 19 19 20 20 21 21 21 22
29 33 33 29 28 29 29 29 30 29 28 29 28 25 25 25 25 24 23 21 17 14 20 22 22 20 18 21 21 22 22 22 25 24 24 24 25 25 25 25 26 25 25 25 25 25 25 26 25 24 22 22 21 22 22 22 21 21 20 19 19 20 20 19 19 19 19 20 20 19 19 19 18 18 17 16 17 18 17 17 18 19 20 21 21 21
29 28 26 27 31 29 28 27 27 29 28 28 25 24 25 25 20 19 17 20 14 16 18 21 22 20 16 18 21 23 24 23 25 24 23 24 24 24 24 25 25 25 25 25 25 24 25 24 24 23 22 21 20 20 20 20 20 20 19 17 17 18 18 18 18 18 19 19 19 19 19 19 19 18 18 17 17 18 17 18 18 19 19 19 20 20
27 29 29 27 33 27 26 27 26 28 26 26 24 25 20 15 15 12 12 13 14 17 18 22 22 19 19 20 20 23 24 23 23 25 23 23 23 23 24 24 25 25 25 25 24 25 25 25 24 23 22 21 20 20 20 20 20 19 17 16 16 17 18 17 17 17 17 18 18 18 18 19 20 19 19 18 19 19 18 18 18 18 18 19 19 20
26 27 28 28 27 29 28 25 23 24 24 24 24 23 19 14 13 9 9 7 12 17 19 21 22 18 21 22 23 22 22 22 22 23 25 23 23 23 23 24 24 25 25 25 25 25 25 25 25 24 22 21 20 19 20 20 19 18 18 17 17 18 19 19 18 17 17 18 18 19 18 18 18 19 19 19 19 20 20 20 19 20 20 20 21 21
19 24 27 28 27 29 26 26 26 26 24 24 25 24 24 18 13 11 9 12 15 17 17 20 16 15 15 19 23 23 23 22 24 25 25 24 23 23 23 24 24 24 24 25 25 25 25 25 25 23 23 21 20 19 19 19 19 18 18 18 17 18 19 20 20 19 18 19 19 19 20 20 20 19 20 21 22 20 20 20 19 19 20 20 21 22
24 25 26 29 28 27 27 28 27 26 25 24 25 25 20 21 23 16 17 13 10 12 12 16 17 19 21 23 25 21 22 22 24 23 24 23 23 23 23 23 22 22 23 24 24 25 25 25 25 24 22 21 20 19 19 19 20 19 20 20 20 20 20 21 21 21 20 20 20 20 19 20 22 22 20 21 21 20 20 20 20 19 19 20 21 21
23 23 27 28 27 25 26 28 26 27 22 24 23 20 25 26 23 18 20 18 16 13 19 12 21 23 24 23 21 22 20 20 21 22 22 22 22 22 21 21 21 22 23 24 24 24 24 24 24 23 22 22 22 19 19 19 19 19 20 20 20 20 21 22 23 21 21 21 20 20 20 20 19 19 19 19 19 19 20 20 20 20 19 19 20 21
24 23 27 26 26 27 27 27 28 29 28 24 20 23 27 29 28 24 18 15 12 16 15 18 18 20 20 19 21 20 20 20 20 20 20 21 21 20 20 21 21 22 22 23 24 24 24 24 24 25 24 23 22 21 20 20 20 20 21 20 19 20 20 21 22 22 21 21 20 20 19 19 20 19 19 20 19 20 19 20 20 20 20 20 20 22
28 22 25 27 27 27 28 26 26 28 29 25 25 28 24 20 20 25 22 18 16 16 14 17 21 20 21 20 21 21 20 20 19 20 19 19 19 19 19 19 21 21 22 23 23 23 24 24 25 25 24 24 24 25 23 23 24 23 21 21 20 19 20 21 22 22 21 21 22 21 20 18 18 18 17 19 19 19 19 20 20 20 20 20 20 21
26 20 24 28 27 28 27 27 23 24 27 29 28 26 28 25 25 23 24 21 20 19 18 16 20 19 23 23 21 21 21 21 20 19 19 19 18 18 18 19 20 21 21 22 22 23 23 24 25 25 24 25 24 24 25 25 25 23 23 22 21 20 20 19 19 21 18 19 19 19 18 17 18 19 17 18 17 16 18 19 20 20 20 20 20 20
26 26 19 26 28 26 24 26 25 25 24 24 26 25 26 25 27 27 23 23 21 16 19 19 18 21 24 25 22 22 21 21 20 20 20 19 18 18 18 19 20 21 21 21 22 22 23 24 25 25 26 25 25 26 25 24 23 22 23 21 21 17 17 17 17 19 19 18 16 16 15 15 15 15 16 14 17 15 17 19 21 20 20 19 18 20
26 26 25 27 25 24 25 28 27 27 26 26 25 24 25 25 22 21 22 26 21 21 20 20 20 22 26 25 24 23 22 21 21 21 20 19 18 18 19 19 20 21 21 21 21 22 22 23 24 25 26 25 24 23 23 23 22 21 21 20 19 18 18 16 16 17 17 17 16 15 14 15 15 15 15 13 15 15 15 17 18 19 19 17 18 18
30 31 28 26 26 26 29 30 30 31 30 28 26 25 27 26 25 21 21 22 18 21 21 20 20 23 25 25 26 25 24 21 20 20 20 20 19 19 19 20 20 20 20 21 21 21 22 22 23 24 25 25 24 23 22 22 21 21 20 21 20 18 17 17 16 17 17 15 14 14 15 14 14 13 13 13 13 14 14 16 17 19 18 17 17 18
35 29 26 29 29 29 28 29 30 30 29 28 28 27 26 24 25 24 24 22 20 18 19 16 20 23 24 26 25 24 22 20 21 20 20 19 19 19 20 20 20 20 21 22 22 22 22 22 22 23 24 24 23 22 22 21 21 20 20 20 19 17 16 17 17 17 16 15 14 15 13 13 13 13 13 13 13 14 14 15 17 18 17 17 17 17
28 30 29 24 24 25 25 27 27 28 27 26 25 26 26 25 22 21 19 19 21 22 22 19 19 21 26 26 22 19 21 21 21 21 21 20 20 20 19 20 21 21 21 21 22 21 21 21 21 22 23 23 23 22 21 21 20 20 20 19 18 17 16 16 16 15 15 14 13 14 13 13 13 13 14 14 14 14 14 14 15 15 16 15 15 15
30 30 29 25 23 21 20 21 19 23 26 26 26 26 27 26 24 22 21 20 22 26 25 22 22 25 26 27 25 24 22 21 20 21 21 21 22 24 23 23 21 22 22 21 21 20 20 20 21 21 21 21 21 21 21 21 20 20 18 17 17 16 16 16 17 15 15 14 14 14 14 14 14 14 14 15 15 15 14 14 14 14 14 15 15 15
29 29 30 29 26 24 24 19 22 26 23 24 23 24 26 24 23 25 22 20 23 25 26 26 26 23 25 25 25 23 21 20 21 22 22 23 23 24 24 24 23 22 22 21 21 20 19 19 19 20 20 20 19 20 21 21 21 19 18 17 17 17 16 17 17 15 15 15 15 15 15 14 15 15 15 15 15 15 14 14 14 15 15 15 15 14
30 30 30 30 29 29 27 26 24 27 24 25 24 24 24 22 21 24 23 22 26 23 21 26 23 22 24 23 24 23 21 22 22 22 23 23 23 24 24 23 27 23 22 21 20 19 18 18 18 18 19 18 19 19 20 21 20 19 18 17 17 17 18 18 18 16 16 16 15 15 15 15 15 16 16 15 14 14 14 15 15 15 15 15 14 13
31 31 31 30 29 30 26 26 27 26 25 25 25 25 25 24 20 21 21 24 22 22 20 22 21 19 21 22 23 24 23 21 22 23 24 23 23 24 23 23 24 23 22 19 18 18 18 17 17 17 17 18 18 18 18 19 19 18 18 18 18 18 18 19 18 17 16 16 15 15 15 15 16 16 15 14 14 14 15 15 15 14 13 12 11 10
31 28 26 29 28 28 27 27 26 25 23 21 22 24 25 24 23 23 22 22 21 20 20 21 19 18 18 18 18 20 23 23 22 24 24 24 25 25 25 24 24 23 21 19 18 18 17 17 17 16 16 16 17 16 16 17 18 18 18 18 19 19 19 19 18 17 16 15 15 15 15 15 14 14 14 14 14 14 13 12 11 10 8 8 8 8
31 26 28 25 24 22 22 24 24 24 22 23 24 23 21 20 21 22 22 19 19 18 19 18 18 17 19 19 18 20 22 23 23 23 23 24 25 25 25 25 24 22 20 19 18 17 17 17 16 16 16 16 16 16 16 16 16 17 18 18 18 18 19 19 18 16 15 15 15 15 14 14 13 13 13 13 13 10 9 9 8 7 7 7 7 7
29 26 22 21 23 20 16 21 22 17 17 18 18 19 18 19 19 20 19 20 19 19 19 17 15 18 20 21 22 23 23 23 23 23 23 24 24 24 25 25 24 22 20 18 18 17 16 16 15 16 16 16 15 16 15 15 16 17 17 17 18 18 19 18 16 15 14 14 14 13 12 13 12 12 11 9 8 7 5 5 5 5 6 6 6 6
28 25 21 19 22 20 17 17 17 16 17 17 19 18 17 18 19 18 17 19 20 20 17 16 17 20 20 20 18 19 21 21 21 21 22 22 22 24 24 24 24 23 21 19 17 16 16 15 15 16 16 17 16 16 16 16 15 16 17 17 18 18 17 16 14 14 13 12 12 12 12 11 8 7 6 5 4 4 4 4 4 4 4 4 5 5
27 27 24 23 22 15 14 15 15 14 12 17 18 21 17 16 16 15 16 15 15 17 18 18 18 16 15 16 18 18 18 18 20 21 21 21 22 23 23 23 23 23 22 21 19 18 18 18 18 17 17 17 17 17 16 16 16 16 17 18 17 16 15 14 13 12 11 10 10 11 10 7 4 4 3 3 3 3 3 3 3 3 3 4 4 4
26 25 24 21 18 14 13 15 14 13 15 18 16 17 14 12 12 15 14 11 11 14 16 16 17 17 19 20 20 20 20 19 16 19 19 18 21 22 23 23 23 23 23 23 22 22 22 21 21 19 17 17 17 16 17 16 17 17 17 16 15 14 13 12 11 10 9 9 10 8 4 3 2 2 2 1 2 2 2 2 2 2 3 3 3 2
24 24 22 20 18 16 14 17 13 12 19 15 13 15 16 14 15 13 11 13 14 15 15 16 17 18 19 19 20 20 19 18 11 11 13 14 19 21 21 21 21 21 20 20 21 21 22 22 21 20 19 19 17 16 16 15 17 17 15 14 14 12 10 9 9 9 8 8 7 4 2 1 0 0 -0 1 0 0 1 1 -0 0 1 1 1 1
26 23 22 21 21 16 16 15 17 18 18 19 18 10 10 9 13 12 7 9 9 12 16 17 18 18 17 18 17 13 12 7 7 8 11 13 13 15 16 16 15 15 15 14 15 15 16 18 19 19 19 17 16 15 16 17 16 15 13 12 10 9 7 7 7 8 8 6 4 2 1 1 -0 -1 -1 -1 -1 -1 -1 -0 -1 -1 -0 -1 -0 -0
26 25 23 22 17 19 13 15 11 10 14 16 21 15 14 12 16 14 7 8 13 8 16 17 17 17 13 9 7 9 8 8 10 12 12 10 12 13 15 15 14 14 14 14 15 15 16 17 17 17 17 17 16 14 14 14 14 13 12 9 7 7 5 5 6 7 5 3 1 1 0 0 -1 -2 -2 -3 -3 -3 -1 -2 -2 -2 -2 -2 -2 -2
25 24 24 24 20 15 13 15 14 13 13 18 17 12 12 12 15 10 6 4 12 11 15 18 16 12 15 10 7 8 7 3 9 12 12 13 11 14 13 14 14 15 15 15 15 15 16 18 18 18 17 15 14 11 10 11 11 11 9 7 6 4 4 4 6 3 1 1 0 0 -0 -2 -2 -3 -4 -4 -3 -4 -3 -3 -3 -2 -2 -2 -2 -2
23 20 21 20 18 19 17 14 14 12 14 15 8 8 13 13 11 11 -3 -1 6 11 12 15 15 14 14 11 10 11 11 3 9 11 12 13 12 13 13 12 13 15 17 18 19 17 18 19 16 14 14 14 12 8 7 7 9 7 7 6 4 3 2 5 3 0 -0 -0 -1 -1 -2 -3 -3 -4 -5 -3 -4 -4 -4 -4 -3 -4 -3 -3 -3 -3
20 17 20 17 20 20 21 15 9 11 14 10 11 12 14 14 10 0 -4 3 9 11 14 15 16 16 15 11 11 7 12 11 10 9 12 14 13 12 14 13 13 14 14 16 17 23 18 18 16 15 14 13 9 6 5 6 7 5 5 4 2 1 4 2 -0 -1 -1 -1 -3 -4 -4 -5 -5 -5 -5 -6 -5 -4 -4 -4 -3 -4 -5 -5 -5 -5
16 18 16 16 15 16 15 14 12 12 13 12 12 14 15 7 1 3 13 14 13 12 14 16 15 14 14 13 12 12 11 13 13 13 13 14 13 12 12 12 12 12 12 17 16 18 17 16 13 10 9 8 6 5 4 6 6 4 4 1 -0 1 1 -1 -1 -2 -4 -4 -5 -5 -6 -7 -7 -6 -6 -7 -6 -6 -6 -6 -6 -5 -6 -5 -6 -6
13 14 12 16 17 15 13 11 8 5 12 15 15 12 12 6 10 15 12 11 15 15 15 15 15 14 14 13 13 12 12 11 11 12 13 13 14 13 12 11 11 11 11 16 19 17 15 13 11 10 9 6 4 3 3 4 3 2 1 0 -1 0 -1 -1 -3 -4 -5 -5 -6 -7 -8 -9 -9 -7 -9 -7 -7 -8 -7 -7 -7 -7 -7 -7 -7 -7
14 7 4 13 18 8 12 10 9 12 15 16 16 11 12 16 17 17 15 10 13 14 16 16 16 16 15 13 13 13 12 12 11 11 12 12 13 14 13 13 12 12 11 13 16 17 14 12 11 9 6 4 3 1 3 3 2 1 -0 -2 -1 0 -2 -4 -5 -6 -7 -7 -8 -9 -9 -10 -9 -9 -10 -9 -9 -9 -9 -9 -8 -8 -8 -7 -7 -7
12 12 11 7 12 11 10 13 15 16 17 16 15 15 15 16 17 16 14 14 13 14 14 15 14 15 16 14 13 13 12 12 11 11 11 11 11 12 13 13 13 12 11 12 14 15 13 12 9 7 4 3 1 -1 -3 -2 0 -1 -3 -2 2 -2 -5 -6 -7 -9 -9 -10 -11 -12 -11 -12 -12 -12 -11 -11 -10 -10 -8 -9 -11 -9 -9 -9 -8 -8
10 13 11 9 7 9 10 14 15 11 14 16 16 17 16 16 17 16 14 13 13 15 15 13 13 14 16 16 14 13 13 12 12 11 11 11 11 11 12 12 12 12 11 10 10 12 12 9 7 6 4 2 -1 -2 -3 -5 -2 -4 -4 -2 -3 -5 -6 -8 -10 -10 -11 -13 -13 -13 -14 -12 -11 -11 -10 -10 -9 -9 -9 -9 -8 -8 -8 -9 -8 -9
7 10 6 6 9 2 2 10 7 8 12 15 16 16 17 16 16 16 15 15 14 15 15 14 13 12 13 16 15 14 14 14 13 13 13 13 13 13 13 13 13 12 12 12 12 10 7 6 6 5 4 2 -1 -3 -4 -7 -7 -6 -4 -4 -3 -5 -9 -12 -11 -10 -11 -11 -12 -13 -14 -13 -11 -10 -10 -12 -10 -9 -9 -8 -8 -9 -8 -9 -9 -9
7 9 7 7 6 4 4 5 7 9 11 13 15 15 15 16 15 15 16 16 15 14 14 15 14 14 13 13 16 16 15 15 15 15 15 15 15 15 15 15 14 12 12 11 9 8 5 6 7 5 3 3 0 -2 -4 -6 -6 -6 -6 -7 -5 -9 -12 -10 -11 -11 -12 -14 -15 -12 -13 -12 -8 -7 -9 -9 -11 -10 -10 -9 -9 -9 -9 -9 -9 -9
8 9 1 6 5 5 6 8 10 8 8 10 10 12 14 15 14 14 14 14 13 13 13 13 15 14 14 14 15 16 16 16 16 16 16 16 16 16 16 15 14 13 12 9 6 5 8 6 6 4 2 2 -1 -3 -5 -8 -8 -9 -7 -6 -10 -11 -12 -11 -10 -10 -14 -14 -14 -13 -11 -10 -11 -11 -10 -10 -11 -11 -9 -9 -9 -8 -8 -7 -6 -5
8 8 9 6 4 3 4 5 7 1 5 6 8 9 9 11 12 12 11 10 11 12 13 12 13 14 14 14 14 15 15 15 15 15 15 16 15 15 15 14 12 11 9 7 4 3 2 1 3 -0 -1 -2 -3 -5 -6 -9 -10 -10 -6 -10 -11 -12 -13 -12 -12 -14 -14 -13 -15 -14 -13 -13 -12 -14 -11 -11 -11 -11 -11 -5 6 4 -0 1 7 12
6 7 7 8 6 7 8 7 8 7 6 7 8 8 9 9 9 10 10 10 10 11 11 11 12 12 12 14 14 14 14 14 14 14 14 14 15 15 15 13 11 9 7 3 1 -1 0 -1 -3 -4 -4 -3 -5 -6 -7 -9 -10 -11 -11 -8 -9 -11 -12 -13 -12 -13 -13 -14 -14 -11 -12 -12 -12 -12 -12 -12 -11 -11 -10 -10 -8 4 10 11 11 12